[sarex] 2 Line ISS Keps 1-23

Dave Larsen PhD doc at volcano.net
Fri Jan 23 06:01:41 PST 2009


ISS
1 25544U 98067A   09021.90854292 +.00011432 +00000-0 +95712-4 0 01172
2 25544 051.6436 335.7578 0007718 292.9948 166.3593 15.70502208582942



More information about the SAREX mailing list